[[{"header":{"parameterUnit":"m.s-1","parameterCategory":1,"la1":30.2991,"la2":30.254,"lo1":-89.0895,"lo2":-89.0444,"dy":0.0017,"dx":0.0017,"nx":28,"ny":28,"refTime":"2025-12-23T09:00:00:Z","depth":0,"parameterNumber":2,"parameterNumberName":"U-component_of_WINDS"},"data":[0,0,0,0,0,0,0,0,0,0,0,0,0,0,0,0,0,0,0,0,0,0,0,0,0,0,0,0,0,0,0,0,0,0,0,0,0,0,0,0,0,0,0,0,0,0,0,0,0,0,0,0,0,0,0,0,0,0,-3.0827,-3.0827,0,-3.0803,-3.0803,-3.0802,-3.069,-3.0687,-3.0684,-3.0682,-3.0658,-3.066,-3.0662,0,0,0,0,0,0,0,0,0,0,0,0,0,-3.0777,-3.0779,-3.0827,-3.0827,-3.0827,-3.0803,-3.0803,-3.0802,-3.069,-3.0687,-3.0684,-3.068,-3.0658,-3.066,-3.0662,0,0,0,0,0,0,0,0,0,0,0,0,0,-3.0781,-3.0779,-3.0827,-3.0768,-3.0762,-3.0803,-3.0803,-3.0802,-3.0691,-3.0687,-3.0683,-3.0679,-3.0657,-3.066,-3.0662,-3.0759,0,0,-3.0671,-3.0672,0,0,0,0,0,0,0,0,-3.0781,-3.0783,-3.0777,-3.0772,-3.0766,-3.0745,-3.0776,-3.0788,-3.0692,-3.0718,-3.0682,-3.0677,-3.069,-3.069,-3.0694,-3.0758,-3.0757,-3.0671,-3.0673,-3.0674,-3.0675,0,0,0,0,0,0,0,-3.0781,-3.0783,-3.0817,-3.0777,-3.077,-3.0743,-3.0739,-3.0778,-3.0727,-3.0715,-3.0707,-3.0706,-3.0687,-3.0692,-3.0693,-3.0757,-3.0671,-3.0673,-3.0675,-3.0676,-3.0899,-3.0903,0,0,0,0,0,0,-3.0789,-3.0784,-3.0818,-3.0817,-3.0764,-3.0747,-3.0742,-3.0756,-3.0726,-3.0718,-3.0709,-3.07,-3.0689,-3.069,-3.0692,-3.0803,-3.0674,-3.0676,-3.0678,-3.0895,-3.09,-3.0904,0,0,0,0,0,0,-3.0788,-3.0793,-3.0819,-3.0798,-3.0799,-3.0752,-3.0768,-3.0757,-3.0762,-3.0721,-3.0712,-3.0724,-3.0686,-3.0688,-3.0743,-3.0801,-3.0678,-3.068,-3.089,-3.0896,-3.0902,-3.1027,0,0,0,0,0,0,-3.0787,-3.0793,-3.0829,-3.08,-3.0801,-3.0871,-3.0771,-3.076,-3.0767,-3.0756,-3.0733,-3.0725,-3.0683,-3.074,-3.0746,-3.0802,-3.0682,-3.0884,-3.0893,-3.09,-3.1018,-3.1037,-3.1053,0,0,0,0,0,-3.0786,-3.0866,-3.0832,-3.0836,-3.0845,-3.0874,-3.0875,-3.0825,-3.0773,-3.0808,-3.0782,-3.0726,-3.0794,-3.0746,-3.0752,-3.0811,-3.088,-3.089,-3.0899,-3.1009,-3.1033,-3.1053,0,0,0,0,0,0,-3.0903,-3.0861,-3.0822,-3.0895,-3.0889,-3.0855,-3.0899,-3.0852,-3.0861,-3.085,-3.0787,-3.0783,-3.0848,-3.0835,-3.0783,-3.0903,-3.0827,-3.0839,-3.0909,-3.0931,-3.0949,-3.095,-3.0685,0,0,0,0,0,-3.0938,-3.0965,-3.0926,-3.0994,-3.0993,-3.0947,-3.0958,-3.092,-3.0912,-3.0909,-3.0886,-3.0881,-3.0901,-3.0915,-3.0931,-3.1015,-3.1009,-3.1058,-3.1076,-3.1091,-3.1102,-3.1145,-3.1167,-3.0936,-3.0936,-3.0936,0,0,-3.1009,-3.0989,-3.101,-3.1017,-3.1008,-3.1038,-3.0946,-3.0981,-3.1003,-3.0914,-3.0965,-3.0949,-3.0938,-3.1009,-3.1038,-3.1,-3.1164,-3.1103,-3.1116,-3.1118,-3.1158,-3.118,-3.1199,-3.0942,-3.0941,-3.094,0,0,-3.1154,-3.1142,-3.1197,-3.119,-3.1177,-3.1146,-3.116,-3.1133,-3.1119,-3.1169,-3.1103,-3.1128,-3.1164,-3.1159,-3.1162,-3.1307,-3.1255,-3.1314,-3.1407,-3.1451,-3.1469,-3.1485,-3.1537,-3.1556,-3.1324,-3.1325,-3.1325,0,-3.1244,-3.1286,-3.1231,-3.1271,-3.1277,-3.1198,-3.1253,-3.1249,-3.1243,-3.1249,-3.1206,-3.1249,-3.1236,-3.1305,-3.134,-3.1345,-3.1358,-3.1316,-3.1471,-3.1486,-3.15,-3.1549,-3.1569,-3.1332,-3.1331,-3.133,-3.133,0,-3.1398,-3.1429,-3.1475,-3.147,-3.1481,-3.1529,-3.1482,-3.1499,-3.1461,-3.1434,-3.1487,-3.1469,-3.148,-3.1494,-3.1457,-3.1557,-3.1534,-3.1482,-3.1405,-3.153,-3.1575,-3.1593,-3.1342,-3.134,-3.1337,-3.1336,0,0,-3.1616,-3.1581,-3.1599,-3.1596,-3.1577,-3.16,-3.1644,-3.1655,-3.1671,-3.167,-3.1706,-3.1739,-3.1691,-3.1694,-3.1655,-3.1694,-3.181,-3.1637,-3.1636,-3.167,-3.192,-3.1959,-3.1982,-3.1776,-3.1779,-3.1782,-3.1921,0,-3.1754,-3.1827,-3.178,-3.1861,-3.1889,-3.1815,-3.1854,-3.1847,-3.1824,-3.1844,-3.1819,-3.1843,-3.1778,-3.1779,-3.1814,-3.1789,-3.1859,-3.1778,-3.1809,-3.1811,-3.1814,-3.2005,-3.2046,-3.2178,-3.1938,-3.1941,-3.1943,0,-3.1925,-3.1931,-3.2016,-3.1991,-3.2001,-3.2037,-3.2043,-3.2064,-3.2055,-3.2035,-3.204,-3.1992,-3.2034,-3.1959,-3.2018,-3.1963,-3.1974,-3.1963,-3.1967,-3.1968,-3.1885,-3.2011,-3.2219,-3.2239,-3.197,-3.1968,-3.1966,0,-3.2075,-3.2105,-3.2159,-3.2159,-3.2132,-3.2159,-3.2149,-3.2136,-3.2146,-3.2152,-3.2158,-3.2169,-3.2175,-3.2185,-3.2142,-3.2091,-3.2207,-3.2128,-3.2192,-3.2193,-3.2219,-3.2218,-3.2432,-3.2227,-3.2227,-3.2226,-3.2226,0,-3.2234,-3.2289,-3.2226,-3.2259,-3.2319,-3.2263,-3.2324,-3.2306,-3.2295,-3.2324,-3.2261,-3.229,-3.2231,-3.2255,-3.2221,-3.2275,-3.2278,-3.2264,-3.2255,-3.227,-3.2272,-3.2275,-3.2265,-3.2231,-3.223,-3.2229,-3.2228,0,-3.2412,-3.2372,-3.2426,-3.2396,-3.239,-3.2435,-3.241,-3.244,-3.2413,-3.2451,-3.2457,-3.2415,-3.2439,-3.2397,-3.2416,-3.2394,-3.2469,-3.2445,-3.2472,-3.2465,-3.2532,-3.2526,-3.2755,-3.2782,-3.256,-3.2563,-3.2564,0,-3.2516,-3.2556,-3.2531,-3.2546,-3.2539,-3.2564,-3.2574,-3.2522,-3.2534,-3.2528,-3.2559,-3.2578,-3.259,-3.2632,-3.2604,-3.2618,-3.2594,-3.2673,-3.2596,-3.261,-3.2595,-3.2593,-3.2597,-3.2689,-3.2692,-3.2694,-3.2696,0,-3.2705,-3.2683,-3.2699,-3.2709,-3.2722,-3.2728,-3.2728,-3.2744,-3.2689,-3.2707,-3.2731,-3.274,-3.276,-3.2779,-3.2787,-3.2777,-3.2728,-3.2721,-3.2736,-3.2752,-3.2766,-3.2759,-3.2515,-3.2716,-3.2714,-3.2712,-3.2711,-3.271,-3.2848,-3.288,-3.2868,-3.2888,-3.2883,-3.2886,-3.2913,-3.2889,-3.2908,-3.2919,-3.2888,-3.2919,-3.291,-3.2915,-3.2911,-3.2935,-3.29,-3.2923,-3.2929,-3.2935,-3.2946,-3.2762,-3.2937,-3.2936,-3.2935,-3.2935,-3.2935,0,-3.3033,-3.3022,-3.3041,-3.3044,-3.3061,-3.3013,-3.3011,-3.3028,-3.3056,-3.3052,-3.3065,-3.3093,-3.3112,-3.3086,-3.31,-3.3125,-3.3103,-3.313,-3.3128,-3.3127,-3.2976,-3.2961,-3.3148,-3.3148,-3.3148,-3.3148,-3.3148,-3.3148,-3.3132,-3.3184,-3.3161,-3.3211,-3.3199,-3.3229,-3.3232,-3.3234,-3.323,-3.3264,-3.3279,-3.3262,-3.3249,-3.3262,-3.3278,-3.327,-3.3278,-3.3314,-3.3298,-3.3158,-3.3137,-3.3117,-3.3103,-3.3316,-3.3317,-3.3446,-3.3447,-3.3448]},{"header":{"parameterUnit":"m.s-1","parameterCategory":1,"la1":30.2991,"la2":30.254,"lo1":-89.0895,"lo2":-89.0444,"dy":0.0017,"dx":0.0017,"nx":28,"ny":28,"refTime":"2025-12-23T09:00:00:Z","depth":0,"parameterNumber":3,"parameterNumberName":"V-component_of_WINDS"},"data":[0,0,0,0,0,0,0,0,0,0,0,0,0,0,0,0,0,0,0,0,0,0,0,0,0,0,0,0,0,0,0,0,0,0,0,0,0,0,0,0,0,0,0,0,0,0,0,0,0,0,0,0,0,0,0,0,0,0,-0.996,-0.996,0,-0.9968,-0.9968,-0.9968,-0.9938,-0.9937,-0.9936,-0.9935,-0.9944,-0.9945,-0.9946,0,0,0,0,0,0,0,0,0,0,0,0,0,-0.9915,-0.9916,-0.996,-0.996,-0.996,-0.9968,-0.9968,-0.9968,-0.9938,-0.9937,-0.9936,-0.9935,-0.9943,-0.9945,-0.9946,0,0,0,0,0,0,0,0,0,0,0,0,0,-0.993,-0.9917,-0.996,-0.9946,-0.9945,-0.9968,-0.9968,-0.9968,-0.9939,-0.9937,-0.9936,-0.9935,-0.9943,-0.9945,-0.9946,-0.9983,0,0,-0.9951,-0.9952,0,0,0,0,0,0,0,0,-0.993,-0.9932,-0.9948,-0.9947,-0.9946,-0.9951,-0.9956,-0.9973,-0.9939,-0.9941,-0.9935,-0.9934,-0.9947,-0.9948,-0.9953,-0.9984,-0.9984,-0.9951,-0.9952,-0.9953,-0.9953,0,0,0,0,0,0,0,-0.9929,-0.9932,-0.9963,-0.9948,-0.9947,-0.9939,-0.9939,-0.9959,-0.9952,-0.9941,-0.9938,-0.994,-0.9946,-0.9951,-0.9953,-0.9984,-0.9951,-0.9953,-0.9954,-0.9954,-1.0044,-1.0045,0,0,0,0,0,0,-0.993,-0.9931,-0.9963,-0.9963,-0.9934,-0.9941,-0.9941,-0.995,-0.9951,-0.995,-0.9941,-0.9938,-0.9949,-0.9951,-0.9953,-0.9996,-0.9953,-0.9954,-0.9955,-1.0042,-1.0044,-1.0046,0,0,0,0,0,0,-0.9929,-0.9933,-0.9962,-0.9946,-0.995,-0.9943,-0.9953,-0.9951,-0.9956,-0.9952,-0.995,-0.9948,-0.9948,-0.9951,-0.9976,-0.9996,-0.9955,-0.9957,-1.0041,-1.0043,-1.0045,-1.0082,0,0,0,0,0,0,-0.9928,-0.9933,-0.9947,-0.9947,-0.9951,-0.9985,-0.9955,-0.9952,-0.9959,-0.9956,-0.9957,-0.9956,-0.9948,-0.9973,-0.9977,-0.9997,-0.9958,-1.0039,-1.0042,-1.0044,-1.0079,-1.0085,-1.009,0,0,0,0,0,-0.9926,-0.9958,-0.9948,-0.9952,-0.9969,-0.9987,-0.9989,-0.9978,-0.9961,-0.9975,-0.9972,-0.9956,-0.9993,-0.9976,-0.998,-1.0001,-1.0038,-1.0041,-1.0044,-1.0076,-1.0084,-1.009,0,0,0,0,0,0,-0.9961,-0.9957,-0.9947,-0.9979,-0.9983,-0.9982,-0.9999,-0.9986,-0.9996,-0.9992,-0.9978,-0.9979,-1.0006,-1.0006,-0.9987,-1.0036,-1.0012,-1.0016,-1.0035,-1.0042,-1.0048,-1.0047,-0.9959,0,0,0,0,0,-0.9972,-0.9987,-0.9983,-1.0012,-1.0015,-1.0007,-1.0014,-1.0005,-1.0009,-1.0011,-1.0009,-1.0013,-1.0025,-1.0034,-1.0045,-1.0078,-1.0077,-1.0094,-1.01,-1.0104,-1.0108,-1.0125,-1.0132,-1.0056,-1.0056,-1.0056,0,0,-0.9996,-0.9996,-1.0006,-1.0019,-1.0021,-1.0037,-1.0008,-1.0026,-1.0037,-1.0013,-1.0037,-1.0035,-1.0039,-1.0068,-1.008,-1.0069,-1.0129,-1.0109,-1.0112,-1.0114,-1.0129,-1.0136,-1.0143,-1.0058,-1.0058,-1.0058,0,0,-1.0047,-1.0049,-1.0072,-1.0075,-1.0078,-1.0072,-1.0078,-1.0077,-1.0076,-1.0098,-1.008,-1.0093,-1.0115,-1.0117,-1.0122,-1.0171,-1.0157,-1.0175,-1.0205,-1.0222,-1.0228,-1.0233,-1.025,-1.0257,-1.0179,-1.0179,-1.0179,0,-1.0076,-1.0099,-1.0086,-1.0105,-1.011,-1.0088,-1.0112,-1.0115,-1.0122,-1.0126,-1.0112,-1.0137,-1.0138,-1.0167,-1.0179,-1.0184,-1.0189,-1.0175,-1.0228,-1.0233,-1.0238,-1.0254,-1.0261,-1.0181,-1.0181,-1.0181,-1.0181,0,-1.0134,-1.015,-1.0168,-1.0175,-1.0182,-1.0203,-1.0193,-1.0202,-1.0192,-1.0187,-1.021,-1.021,-1.022,-1.0226,-1.0217,-1.0253,-1.0246,-1.023,-1.0206,-1.0247,-1.0262,-1.0268,-1.0184,-1.0184,-1.0183,-1.0182,0,0,-1.0209,-1.0206,-1.0213,-1.0215,-1.0217,-1.0228,-1.0248,-1.0257,-1.0265,-1.027,-1.0285,-1.0303,-1.0288,-1.0293,-1.0283,-1.0298,-1.0336,-1.028,-1.028,-1.029,-1.0376,-1.0387,-1.0395,-1.0326,-1.0328,-1.0329,-1.0375,0,-1.0258,-1.0291,-1.0279,-1.0313,-1.0327,-1.0305,-1.0322,-1.0324,-1.0319,-1.033,-1.0325,-1.0338,-1.0318,-1.032,-1.0333,-1.0329,-1.0353,-1.0325,-1.034,-1.0341,-1.0341,-1.0403,-1.0416,-1.046,-1.0381,-1.0382,-1.0383,0,-1.0321,-1.0328,-1.0363,-1.036,-1.0365,-1.0381,-1.0387,-1.0398,-1.0399,-1.0395,-1.04,-1.0387,-1.0404,-1.038,-1.0404,-1.0385,-1.039,-1.0389,-1.039,-1.0392,-1.0365,-1.0406,-1.0474,-1.048,-1.0392,-1.0391,-1.0391,0,-1.0372,-1.0389,-1.0412,-1.0414,-1.0412,-1.0423,-1.0422,-1.0422,-1.0428,-1.0434,-1.0438,-1.0446,-1.045,-1.0456,-1.0445,-1.0429,-1.0471,-1.0445,-1.0467,-1.0468,-1.0478,-1.0477,-1.0547,-1.0481,-1.0481,-1.0481,-1.0481,0,-1.0429,-1.0451,-1.0434,-1.0449,-1.0472,-1.0457,-1.0481,-1.0478,-1.0478,-1.049,-1.0472,-1.0484,-1.0469,-1.048,-1.0471,-1.0492,-1.0494,-1.0491,-1.0488,-1.0493,-1.0493,-1.0496,-1.0493,-1.0482,-1.0482,-1.0482,-1.0481,0,-1.049,-1.048,-1.0503,-1.0498,-1.0497,-1.0514,-1.051,-1.0522,-1.0516,-1.0532,-1.0535,-1.0525,-1.0536,-1.0526,-1.0537,-1.0531,-1.0559,-1.0552,-1.0558,-1.0556,-1.0579,-1.0577,-1.0653,-1.0663,-1.059,-1.0591,-1.0592,0,-1.0527,-1.0543,-1.0539,-1.0546,-1.0546,-1.0558,-1.0564,-1.0549,-1.0556,-1.0557,-1.0569,-1.0579,-1.0586,-1.0605,-1.0599,-1.0606,-1.0599,-1.0626,-1.0601,-1.0604,-1.06,-1.0599,-1.06,-1.0631,-1.0632,-1.0633,-1.0633,0,-1.0594,-1.0587,-1.0596,-1.0603,-1.0609,-1.0614,-1.0617,-1.0624,-1.0609,-1.0617,-1.0628,-1.0633,-1.0643,-1.0653,-1.0659,-1.0658,-1.0643,-1.0641,-1.0646,-1.0651,-1.0654,-1.0653,-1.0572,-1.064,-1.0639,-1.0638,-1.0638,-1.0638,-1.0644,-1.0657,-1.0656,-1.0665,-1.0666,-1.0669,-1.068,-1.0674,-1.0683,-1.069,-1.0681,-1.0694,-1.0693,-1.0699,-1.07,-1.071,-1.0699,-1.0707,-1.0709,-1.0711,-1.0714,-1.0652,-1.0711,-1.0711,-1.0711,-1.071,-1.071,0,-1.0709,-1.0707,-1.0716,-1.072,-1.0728,-1.0712,-1.0715,-1.0722,-1.0734,-1.0734,-1.0741,-1.0753,-1.0762,-1.0755,-1.0763,-1.0772,-1.0765,-1.0774,-1.0773,-1.0773,-1.0724,-1.0718,-1.0779,-1.0779,-1.0779,-1.0779,-1.0779,-1.0779,-1.0745,-1.0765,-1.0758,-1.0779,-1.0776,-1.0788,-1.0791,-1.0793,-1.0793,-1.0807,-1.0814,-1.081,-1.0807,-1.0814,-1.0821,-1.0819,-1.0822,-1.0834,-1.083,-1.0784,-1.0777,-1.077,-1.0765,-1.0835,-1.0835,-1.0878,-1.0878,-1.0879]}]]